Retour au catalogue

NSS K

INTELSAT K

ActifCommunicationsGEO
NORAD 21989·PAYLOAD·🇳🇱 Netherlands

Lancé Jun 10, 1992 depuis Cape Canaveral Space Force Station

Loading…

TLE

FraisSource: Space-Track

Époque: Sep 13, 2026, 21:00 UTC

1 21989U 92032A   26256.87500252 -.00000069  00000-0  00000+0 0  9990
2 21989  15.0438  11.7029 0077195   4.5176 355.7435  0.97180514133345

Suivez NSS K en temps réel avec AllMySat

Download on the App Store